Forecast Directory
U.S. Alerts
El Dorado Weather Logo
U.S. Radar Loop Conditions Map

U.S. Color Satellite North America Color Infrared Animated Satellite Loop

Interactive Wx Map Live U.S. Google Map Radar Thumbnail Image

US Precipitation 1 day, 24 hour precipitation map

US Temperatures US Conditions Map

US Climate Data US Conditions Map


NOAA NWS Hourly Roundups by Site
Regional Weather Roundup for Sacramento, CA
Select Site:  

000
ASUS46 KSTO 231915
RWRCA

NORTHERN AND CENTRAL CA REGIONAL WEATHER ROUNDUP
NATIONAL WEATHER SERVICE SACRAMENTO CA
1200 PM PDT THU MAY 23 2019

NOTE: FAIR INDICATES FEW OR NO CLOUDS BELOW 12,000 FEET WITH NO
SIGNIFICANT WEATHER AND/OR OBSTRUCTIONS TO VISIBILITY.

CAZ001-003-232000-
NORTHWEST AREA

CITY           SKY/WX    TMP DP  RH WIND       PRES   REMARKS
CRESCENT CITY  SUNNY     58  53  84 N21G30    29.94F
UKIAH          SUNNY     73  46  38 N8        29.78S
$$

CAZ006-505>513-232000-
BAY AREA

CITY           SKY/WX    TMP DP  RH WIND       PRES   REMARKS
SANTA ROSA     MOSUNNY   72  54  53 S7        29.77S
SAN RAFAEL     N/A      MM  MM  MM MISG
NAPA           MOSUNNY   68  56  65 SW15      29.80R
CONCORD        SUNNY     73  51  46 S8        29.79S
OAKLAND CITY   N/A       62  MM  MM MISG
OAKLAND        PTSUNNY   63  52  67 SW5       29.83S
SAN FRAN CITY  N/A       59  MM  73 MISG
SAN FRAN ARPT  PTSUNNY   67  54  63 N8        29.81S
LIVERMORE      MOSUNNY   70  54  56 S8        29.80S
HAYWARD        MOSUNNY   67  52  58 SW6       29.82S
REDWOOD CITY   N/A       68  MM  66 MISG
MOFFETT ARPT   MOSUNNY   72  52  49 E5        29.82S
SAN JOSE ARPT  PTSUNNY   69  55  60 SE9       29.82R
$$
CAZ034-037-514>518-232000-
CENTRAL COAST

CITY           SKY/WX    TMP DP  RH WIND       PRES   REMARKS
WATSONVILLE    CLOUDY    58  53  84 S6        29.88S
SALINAS        CLOUDY    61  52  72 W5        29.88S
MONTEREY       CLOUDY    58  52  80 SW9       29.89R
SAN LUIS OBISP CLOUDY    59  54  83 SW10      29.92R
SANTA MARIA    CLOUDY    63  55  75 W6        29.94S
$$
CAZ015-016-232000-
NORTHERN SACRAMENTO VALLEY

CITY           SKY/WX    TMP DP  RH WIND       PRES   REMARKS
REDDING        PTSUNNY   74  43  32 NE7       29.80R
RED BLUFF      MOSUNNY   77  43  29 N13G23    29.80S
OROVILLE       MOSUNNY   71  52  50 SW5       29.80R
$$
CAZ016>018-232000-
SOUTHERN SACRAMENTO VALLEY

CITY           SKY/WX    TMP DP  RH WIND       PRES   REMARKS
AUBURN         MOSUNNY   66  54  63 SW9       29.81S
BEALE AFB      MOSUNNY   71  53  51 SW8       29.78R
LINCOLN        FAIR      70  50  49 S8        29.78S
MARYSVILLE     SUNNY     71  53  52 VRB3      29.79R
SAC INTL ARPT  MOSUNNY   71  53  52 VRB6      29.77S
MATHER AIRPORT MOSUNNY   70  54  56 SE7G14    29.78R
DOWNTOWN SAC   N/A       72  MM  MM MISG
SAC EXEC ARPT  SUNNY     71  52  50 SE6       29.78R
VACAVILLE      SUNNY     76  51  41 N8G18     29.79R
TRAVIS AFB     SUNNY     76  50  39 SW10      29.78R
$$
CAZ019>021-232000-
SAN JOAQUIN VALLEY

CITY           SKY/WX    TMP DP  RH WIND       PRES   REMARKS
STOCKTON       MOSUNNY   72  52  49 SW5       29.78S
MODESTO        MOSUNNY   71  51  49 S7        29.79S
MERCED         PTSUNNY   71  53  52 VRB7      29.81S
LEMOORE        CLOUDY    72  50  45 NW6       29.83S
FRESNO         CLOUDY    66  52  60 SE13      29.85R
HANFORD        PTSUNNY   70  50  49 S6        29.84S
PORTERVILLE    CLOUDY    61  52  72 E8        29.88S
BAKERSFIELD    PTSUNNY   68  48  48 VRB3      29.86R
$$
CAZ011-012-071-232000-
NORTHERN MOUNTAINS

CITY           SKY/WX    TMP DP  RH WIND       PRES   REMARKS
YREKA          SUNNY     66  43  43 N15       29.93F
MOUNT SHASTA   CLOUDY    55  42  61 VRB3      29.92S
ALTURAS        CLOUDY    56  37  49 NE7       29.91R
$$
CAZ011-012-071-232000-
SIERRA NEVADA MTNS

CITY           SKY/WX    TMP DP  RH WIND       PRES   REMARKS
BLUE CANYON    PTSUNNY   52  37  56 NE8       29.87R
TRUCKEE        CLOUDY    45  39  81 N5        29.90R
TAHOE VLY ARPT CLOUDY    45  40  82 E7        29.87S
MAMMOTH LAKES  CLOUDY    45  36  70 W12       29.88R
$$



 

View Past Reports for Sacramento, CA.

Products Courtesy of NOAA-NWS
NWS Information Parsing Script by Ken True at Saratoga Weather - Script by SE Lincoln Weather.

Google


Contact Us | Mobile
Never base any life decisions on weather information from this site or anywhere over the Internet.
Site is dedicated to our Lord & Savior Jesus Christ | Random Quotes

Copyright © 2019 El Dorado Weather, Inc. | Site Designed By:  El Dorado Weather